CW2057 Weather Reports


Display with metric or nautical units.
time (UTC)temp
F
wind
direction
speed
MPH
gust
MPH
rain 1hr
in
rain 24hr
in
rain mn
in
humidity
%
barometer
mb
20260510172615 81 338 5.0 10.0 0.00 0.00 0.00 41 1014.1
20260510172117 82 297 5.0 12.0 0.00 0.00 0.00 40 1014.1
20260510171627 81 306 4.0 12.0 0.00 0.00 0.00 40 1014.1
20260510171115 80 165 5.0 11.0 0.00 0.00 0.00 44 1014.1
20260510170623 81 165 3.0 9.0 0.00 0.00 0.00 40 1014.1
20260510170132 81 165 4.0 9.0 0.00 0.00 0.00 44 1014.1
20260510165619 80 165 2.0 10.0 0.00 0.00 0.00 43 1014.1
20260510165128 81 165 5.0 10.0 0.00 0.00 0.00 41 1014.1
20260510164617 80 165 4.0 9.0 0.00 0.00 0.00 43 1014.1
20260510164126 81 165 2.0 11.0 0.00 0.00 0.00 41 1014.1
20260510163615 80 165 4.0 11.0 0.00 0.00 0.00 44 1014.2
20260510163143 80 165 2.0 9.0 0.00 0.00 0.00 44 1014.2
20260510162630 81 165 1.0 9.0 0.00 0.00 0.00 45 1014.2
20260510162140 80 165 2.0 10.0 0.00 0.00 0.00 45 1014.1
20260510161628 80 266 5.0 12.0 0.00 0.00 0.00 45 1014.1
20260510161117 80 165 2.0 12.0 0.00 0.00 0.00 46 1014.0
20260510160624 79 205 1.0 6.0 0.00 0.00 0.00 47 1014.1
20260510160114 78 15 1.0 5.0 0.00 0.00 0.00 49 1014.1
20260510155638 78 165 1.0 6.0 0.00 0.00 0.00 45 1014.0
20260510155126 79 165 1.0 6.0 0.00 0.00 0.00 49 1014.1
20260510154616 79 297 2.0 4.0 0.00 0.00 0.00 51 1014.1
20260510154125 78 295 0.0 5.0 0.00 0.00 0.00 49 1014.1
20260510153653 78 16 2.0 5.0 0.00 0.00 0.00 48 1014.3
20260510153120 78 353 1.0 5.0 0.00 0.00 0.00 49 1014.2
20260510152628 77 165 2.0 6.0 0.00 0.00 0.00 50 1014.2
20260510152117 77 165 2.0 12.0 0.00 0.00 0.00 47 1014.2
20260510151625 77 165 4.0 12.0 0.00 0.00 0.00 49 1014.2
20260510151114 77 350 3.0 9.0 0.00 0.00 0.00 51 1014.2
20260510150621 75 359 3.0 9.0 0.00 0.00 0.00 51 1014.1
20260510150130 76 349 2.0 8.0 0.00 0.00 0.00 50 1014.1
20260510145618 76 165 0.0 8.0 0.00 0.00 0.00 51 1014.0
20260510145127 76 340 3.0 8.0 0.00 0.00 0.00 48 1014.0
20260510144615 75 165 4.0 8.0 0.00 0.00 0.00 51 1014.0
20260510144124 75 165 3.0 8.0 0.00 0.00 0.00 51 1013.9
20260510143631 75 354 2.0 8.0 0.00 0.00 0.00 50 1013.9
20260510143120 74 293 2.0 10.0 0.00 0.00 0.00 50 1013.8
20260510142627 75 332 1.0 10.0 0.00 0.00 0.00 52 1013.8
20260510142115 75 322 3.0 10.0 0.00 0.00 0.00 52 1013.7
20260510141621 74 165 5.0 8.0 0.00 0.00 0.00 53 1013.8
20260510141129 74 301 1.0 6.0 0.00 0.00 0.00 52 1013.7
20260510140617 74 305 1.0 4.0 0.00 0.00 0.00 56 1013.8
20260510140126 73 174 0.0 9.0 0.00 0.00 0.00 56 1013.7
20260510135614 73 288 2.0 9.0 0.00 0.00 0.00 56 1013.9
20260510135123 72 282 1.0 5.0 0.00 0.00 0.00 60 1013.8
20260510134632 72 307 0.0 4.0 0.00 0.00 0.00 61 1013.9
20260510134121 71 165 1.0 4.0 0.00 0.00 0.00 64 1013.9
20260510133628 70 12 0.0 2.0 0.00 0.00 0.00 62 1014.0
20260510133137 71 216 0.0 4.0 0.00 0.00 0.00 64 1013.9
20260510132626 70 224 0.0 4.0 0.00 0.00 0.00 64 1013.9
20260510132115 70 316 0.0 4.0 0.00 0.00 0.00 63 1014.0
20260510131625 69 194 0.0 3.0 0.00 0.00 0.00 65 1014.0
20260510131114 67 261 1.0 4.0 0.00 0.00 0.00 68 1013.9
20260510130622 68 321 0.0 4.0 0.00 0.00 0.00 66 1013.8
20260510130151 67 299 0.0 3.0 0.00 0.00 0.00 67 1013.8
20260510125618 66 187 1.0 3.0 0.00 0.00 0.00 71 1013.9
20260510125142 64 39 0.0 2.0 0.00 0.00 0.00 73 1013.9
20260510124630 64 328 0.0 2.0 0.00 0.00 0.00 74 1014.0
20260510124119 64 311 0.0 2.0 0.00 0.00 0.00 75 1014.1
20260510123627 63 311 1.0 2.0 0.00 0.00 0.00 78 1014.3
20260510123136 62 357 0.0 2.0 0.00 0.00 0.00 80 1014.2
20260510122623 61 165 0.0 2.0 0.00 0.00 0.00 82 1014.2
20260510122131 61 274 0.0 0.0 0.00 0.00 0.00 82 1014.2
20260510121620 59 3 0.0 0.0 0.00 0.00 0.00 85 1014.1
20260510121128 58 63 0.0 0.0 0.00 0.00 0.00 86 1014.0
20260510120617 57 64 0.0 0.0 0.00 0.00 0.00 88 1014.0
20260510120126 56 165 0.0 0.0 0.00 0.00 0.00 89 1014.0
20260510115637 55 165 0.0 0.0 0.00 0.00 0.00 89 1014.0
20260510115144 55 170 0.0 0.0 0.00 0.00 0.00 89 1013.8
20260510114632 55 170 0.0 0.0 0.00 0.00 0.00 89 1013.8
20260510114121 54 170 0.0 0.0 0.00 0.00 0.00 88 1013.8
20260510113630 54 170 0.0 0.0 0.00 0.00 0.00 88 1013.7
20260510113153 53 170 0.0 0.0 0.00 0.00 0.00 89 1013.6
20260510112620 53 49 0.0 0.0 0.00 0.00 0.00 89 1013.6
20260510112128 52 49 0.0 0.0 0.00 0.00 0.00 89 1013.6
20260510111618 52 49 0.0 0.0 0.00 0.00 0.00 89 1013.4
20260510111126 52 49 0.0 0.0 0.00 0.00 0.00 90 1013.3
20260510110615 51 49 0.0 0.0 0.00 0.00 0.00 90 1013.2
20260510110124 51 49 0.0 0.0 0.00 0.00 0.00 89 1013.2
20260510105633 51 76 0.0 0.0 0.00 0.00 0.00 88 1013.2
20260510105121 51 76 0.0 0.0 0.00 0.00 0.00 89 1013.0
20260510104629 51 76 0.0 0.0 0.00 0.00 0.00 88 1013.0
20260510104119 51 76 0.0 0.0 0.00 0.00 0.00 89 1012.9
20260510103626 50 71 0.0 0.0 0.00 0.00 0.00 90 1012.7
20260510103116 50 53 0.0 0.0 0.00 0.00 0.00 90 1012.6
20260510102626 50 53 0.0 0.0 0.00 0.00 0.00 90 1012.6
20260510102114 49 53 0.0 0.0 0.00 0.00 0.00 89 1012.5
20260510101623 49 53 0.0 0.0 0.00 0.00 0.00 88 1012.4
20260510101131 50 53 0.0 0.0 0.00 0.00 0.00 88 1012.3
20260510100620 50 53 0.0 0.0 0.00 0.00 0.00 87 1012.2
20260510100124 50 53 0.0 0.0 0.00 0.00 0.00 88 1012.2
20260510095613 50 53 0.0 0.0 0.00 0.00 0.00 88 1012.3
20260510095121 50 53 0.0 0.0 0.00 0.00 0.00 88 1012.2
20260510094651 50 53 0.0 0.0 0.00 0.00 0.00 89 1012.2
20260510094118 50 53 0.0 0.0 0.00 0.00 0.00 88 1012.2
20260510093626 50 53 0.0 0.0 0.00 0.00 0.00 86 1012.3
20260510093115 51 53 0.0 0.0 0.00 0.00 0.00 86 1012.4
20260510092643 51 53 0.0 0.0 0.00 0.00 0.00 87 1012.2
20260510092131 51 53 0.0 0.0 0.00 0.00 0.00 88 1012.2
20260510091620 50 53 0.0 0.0 0.00 0.00 0.00 89 1012.2
20260510091130 50 53 0.0 0.0 0.00 0.00 0.00 89 1012.3
20260510090617 50 53 0.0 0.0 0.00 0.00 0.00 88 1012.3
20260510090127 50 53 0.0 0.0 0.00 0.00 0.00 89 1012.2
20260510085616 50 53 0.0 0.0 0.00 0.00 0.00 89 1012.2
20260510085124 51 74 0.0 0.0 0.00 0.00 0.00 89 1012.2
20260510084614 50 80 0.0 0.0 0.00 0.00 0.00 89 1012.2
20260510084122 50 80 0.0 0.0 0.00 0.00 0.00 88 1012.2
20260510083647 50 80 0.0 0.0 0.00 0.00 0.00 90 1012.1
20260510083115 50 80 0.0 0.0 0.00 0.00 0.00 89 1012.2
20260510082624 50 80 0.0 0.0 0.00 0.00 0.00 88 1012.1
20260510082152 51 56 0.0 0.0 0.00 0.00 0.00 87 1012.1
20260510081621 51 56 0.0 0.0 0.00 0.00 0.00 87 1012.0
20260510081129 51 56 0.0 0.0 0.00 0.00 0.00 88 1012.1
20260510080618 51 56 0.0 0.0 0.00 0.00 0.00 88 1011.9
20260510080127 51 55 0.0 0.0 0.00 0.00 0.00 88 1011.8
20260510075616 51 56 0.0 0.0 0.00 0.00 0.00 89 1011.7
20260510075125 51 56 0.0 0.0 0.00 0.00 0.00 89 1011.6
20260510074615 51 56 0.0 0.0 0.00 0.00 0.00 89 1011.6
20260510074123 51 55 0.0 0.0 0.00 0.00 0.00 89 1011.6
20260510073632 51 56 0.0 0.0 0.00 0.00 0.00 88 1011.4
20260510073121 51 55 0.0 0.0 0.00 0.00 0.00 86 1011.4
20260510072630 51 56 0.0 0.0 0.00 0.00 0.00 87 1011.4
20260510072118 51 55 0.0 0.0 0.00 0.00 0.00 88 1011.3
20260510071120 53 56 0.0 0.0 0.00 0.00 0.00 85 1011.3
20260510070628 53 56 0.0 0.0 0.00 0.00 0.00 86 1011.2
20260510070118 52 56 0.0 0.0 0.00 0.00 0.00 88 1011.1
20260510065626 52 56 0.0 0.0 0.00 0.00 0.00 88 1011.1
20260510065135 52 56 0.0 0.0 0.00 0.00 0.00 87 1011.1
20260510064621 52 56 0.0 0.0 0.00 0.00 0.00 87 1011.1
20260510064151 52 56 0.0 0.0 0.00 0.00 0.00 88 1011.1
20260510063618 52 55 0.0 0.0 0.00 0.00 0.00 88 1010.9
20260510063127 52 56 0.0 0.0 0.00 0.00 0.00 89 1010.9
20260510062651 52 56 0.0 0.0 0.00 0.00 0.00 89 1010.9
20260510062139 52 55 0.0 0.0 0.00 0.00 0.00 88 1010.9
20260510061627 53 56 0.0 0.0 0.00 0.00 0.00 88 1010.9
20260510061116 53 56 0.0 0.0 0.00 0.00 0.00 88 1010.9
20260510060625 53 55 0.0 0.0 0.00 0.00 0.00 90 1010.9
20260510060135 53 55 0.0 0.0 0.00 0.00 0.00 88 1010.9
20260510055623 54 55 0.0 0.0 0.00 0.00 0.00 87 1011.0
20260510055132 54 56 0.0 0.0 0.00 0.00 0.00 88 1011.0
20260510054642 54 55 0.0 0.0 0.00 0.00 0.00 88 1011.0
20260510054129 54 55 0.0 0.0 0.00 0.00 0.00 87 1011.0
20260510053619 54 56 0.0 0.0 0.00 0.00 0.00 87 1011.1
20260510053128 54 56 0.0 0.0 0.00 0.00 0.00 88 1011.1
20260510052616 54 56 0.0 0.0 0.00 0.00 0.00 87 1011.2
20260510052126 54 56 0.0 0.0 0.00 0.00 0.00 87 1011.2
20260510051615 55 55 0.0 0.0 0.00 0.00 0.00 87 1011.2
20260510051124 55 56 0.0 0.0 0.00 0.00 0.00 88 1011.1
20260510050629 55 56 0.0 0.0 0.00 0.00 0.00 87 1011.1
20260510050118 55 55 0.0 0.0 0.00 0.00 0.00 86 1011.2
20260510045626 55 56 0.0 0.0 0.00 0.00 0.00 87 1011.3
20260510045115 55 56 0.0 0.0 0.00 0.00 0.00 86 1011.2
20260510044625 55 55 0.0 0.0 0.00 0.00 0.00 87 1011.3
20260510044114 56 56 0.0 0.0 0.00 0.00 0.00 87 1011.2
20260510043621 56 56 0.0 0.0 0.00 0.00 0.00 87 1011.2
20260510043129 56 56 0.0 0.0 0.00 0.00 0.00 87 1011.2
20260510042618 56 56 0.0 0.0 0.00 0.00 0.00 87 1011.3
20260510042127 56 56 0.0 0.0 0.00 0.00 0.00 87 1011.3
20260510041616 56 56 0.0 0.0 0.00 0.00 0.00 87 1011.1
20260510041125 56 56 0.0 0.0 0.00 0.00 0.00 87 1011.1
20260510040614 56 56 0.0 0.0 0.00 0.00 0.00 87 1011.2
20260510040121 56 55 0.0 0.0 0.00 0.00 0.00 88 1011.2
20260510035627 56 55 0.0 0.0 0.00 0.00 0.00 87 1011.0
20260510035116 56 56 0.0 0.0 0.00 0.00 0.00 87 1011.0
20260510034624 56 55 0.0 0.0 0.00 0.00 0.00 87 1011.1
20260510034132 57 56 0.0 0.0 0.00 0.00 0.00 86 1011.1
20260510033622 57 55 0.0 0.0 0.00 0.00 0.00 85 1011.1
20260510033130 57 56 0.0 0.0 0.00 0.00 0.00 85 1011.0
20260510032618 57 56 0.0 0.0 0.00 0.00 0.00 86 1011.0
20260510032126 57 56 0.0 0.0 0.00 0.00 0.00 86 1011.0
20260510031615 57 55 0.0 0.0 0.00 0.00 0.00 85 1011.0
20260510031140 58 55 0.0 0.0 0.00 0.00 0.00 85 1011.0
20260510030627 58 55 0.0 0.0 0.00 0.00 0.00 84 1010.9
20260510030134 58 56 0.0 0.0 0.00 0.00 0.00 84 1011.0
20260510025622 59 56 0.0 0.0 0.00 0.00 0.00 83 1010.9
20260510025130 59 56 0.0 0.0 0.00 0.00 0.00 83 1010.9
20260510024619 59 44 0.0 0.0 0.00 0.00 0.00 82 1010.9
20260510024148 59 44 0.0 0.0 0.00 0.00 0.00 82 1010.8
20260510023616 59 44 0.0 0.0 0.00 0.00 0.00 82 1010.8
20260510023125 59 44 0.0 0.0 0.00 0.00 0.00 82 1010.7
20260510022614 60 44 0.0 0.0 0.00 0.00 0.00 81 1010.8
20260510022122 60 64 0.0 2.0 0.00 0.00 0.00 81 1010.7
20260510021630 60 32 0.0 2.0 0.00 0.00 0.00 81 1010.8
20260510021118 60 17 0.0 1.0 0.00 0.00 0.00 81 1010.8
20260510020628 60 19 0.0 1.0 0.00 0.00 0.00 80 1010.8
20260510020116 60 53 0.0 1.0 0.00 0.00 0.00 80 1010.8
20260510015625 60 59 0.0 1.0 0.00 0.00 0.00 80 1010.7
20260510015114 61 83 0.0 0.0 0.00 0.00 0.00 79 1010.7
20260510014618 61 152 0.0 0.0 0.00 0.00 0.00 78 1010.7
20260510014127 61 65 0.0 0.0 0.00 0.00 0.00 78 1010.6
20260510013617 61 71 0.0 0.0 0.00 0.00 0.00 78 1010.5
20260510013126 61 71 0.0 2.0 0.00 0.00 0.00 78 1010.5
20260510012654 61 72 0.0 2.0 0.00 0.00 0.00 78 1010.4
20260510012122 61 346 0.0 0.0 0.00 0.00 0.00 77 1010.4
20260510011630 62 346 0.0 0.0 0.00 0.00 0.00 77 1010.3
20260510011120 62 272 0.0 0.0 0.00 0.00 0.00 77 1010.1
20260510010628 62 21 0.0 0.0 0.00 0.00 0.00 77 1010.2
20260510010119 62 21 0.0 1.0 0.00 0.00 0.00 77 1010.2
20260510005627 62 21 0.0 1.0 0.00 0.00 0.00 76 1010.1
20260510005117 62 93 0.0 0.0 0.00 0.00 0.00 76 1010.1
20260510004625 63 93 0.0 0.0 0.00 0.00 0.00 76 1010.1
20260510004114 63 93 0.0 0.0 0.00 0.00 0.00 76 1010.1
20260510003623 63 93 0.0 0.0 0.00 0.00 0.00 75 1010.0
20260510003131 63 165 0.0 0.0 0.00 0.00 0.00 74 1009.9
20260510002620 63 165 0.0 0.0 0.00 0.00 0.00 74 1009.9
20260510002149 64 165 0.0 0.0 0.00 0.00 0.00 73 1009.9
20260510001618 64 165 0.0 0.0 0.00 0.00 0.00 73 1009.8
20260510001121 64 165 0.0 2.0 0.00 0.00 0.00 72 1009.7
20260510000631 65 165 0.0 2.0 0.00 0.00 0.00 72 1009.8
20260510000120 65 165 0.0 0.0 0.00 0.00 0.00 72 1009.8
20260509235629 65 165 0.0 0.0 0.00 0.00 0.00 71 1009.7
20260509235137 65 165 0.0 0.0 0.00 0.00 0.00 70 1009.7
20260509234625 66 243 0.0 0.0 0.00 0.00 0.00 70 1009.6
20260509234114 66 245 0.0 0.0 0.00 0.00 0.00 69 1009.6
20260509233642 66 224 0.0 0.0 0.00 0.00 0.00 69 1009.7
20260509233130 66 165 0.0 0.0 0.00 0.00 0.00 69 1009.7
20260509232640 66 165 0.0 2.0 0.00 0.00 0.00 69 1009.3
20260509232128 66 126 0.0 2.0 0.00 0.00 0.00 69 1009.4
20260509231617 66 131 0.0 2.0 0.00 0.00 0.00 68 1009.5
20260509231126 67 135 0.0 2.0 0.00 0.00 0.00 68 1009.4
20260509230615 67 299 0.0 3.0 0.00 0.00 0.00 67 1009.4
20260509230125 67 156 0.0 3.0 0.00 0.00 0.00 67 1009.4
20260509225615 67 176 0.0 3.0 0.00 0.00 0.00 68 1009.4
20260509225123 67 102 0.0 3.0 0.00 0.00 0.00 67 1009.3
20260509224628 67 50 0.0 2.0 0.00 0.00 0.00 67 1009.3
20260509224118 67 191 1.0 2.0 0.00 0.00 0.00 67 1009.4
20260509223626 67 108 0.0 3.0 0.00 0.00 0.00 67 1009.4
20260509223113 68 109 1.0 6.0 0.00 0.00 0.00 67 1009.3
20260509222623 68 98 0.0 6.0 0.00 0.00 0.00 66 1009.4
20260509222151 69 127 1.0 8.0 0.00 0.00 0.00 65 1009.4
20260509221639 69 176 1.0 8.0 0.00 0.00 0.00 65 1009.4
20260509221147 70 143 1.0 4.0 0.00 0.00 0.00 63 1009.4
20260509220635 70 255 0.0 4.0 0.00 0.00 0.00 63 1009.4
20260509220123 70 210 1.0 4.0 0.00 0.00 0.00 63 1009.4
20260509215633 70 121 0.0 4.0 0.00 0.00 0.00 64 1009.4
20260509215121 69 129 0.0 5.0 0.00 0.00 0.00 63 1009.4
20260509214630 70 132 2.0 5.0 0.00 0.00 0.00 64 1009.4
20260509214119 70 118 1.0 4.0 0.00 0.00 0.00 63 1009.4
20260509213643 70 93 1.0 4.0 0.00 0.00 0.00 64 1009.4
20260509213149 70 143 0.0 4.0 0.00 0.00 0.00 63 1009.4
20260509212618 71 201 3.0 4.0 0.00 0.00 0.00 59 1009.4
20260509212127 71 311 1.0 4.0 0.00 0.00 0.00 57 1009.4
20260509211635 71 320 1.0 4.0 0.00 0.00 0.00 57 1009.4
20260509211122 71 359 1.0 4.0 0.00 0.00 0.00 57 1009.4
20260509210631 71 297 1.0 8.0 0.00 0.00 0.00 58 1009.4
20260509210139 71 287 3.0 10.0 0.00 0.00 0.00 57 1009.3
20260509205625 71 332 3.0 10.0 0.00 0.00 0.00 57 1009.3
20260509205114 71 307 1.0 4.0 0.00 0.00 0.00 59 1009.2
20260509204622 71 326 1.0 5.0 0.00 0.00 0.00 57 1009.2
20260509204131 71 298 2.0 5.0 0.00 0.00 0.00 57 1009.2
20260509203639 71 17 2.0 5.0 0.00 0.00 0.00 58 1009.2
20260509203127 71 277 2.0 10.0 0.00 0.00 0.00 57 1009.2
20260509202652 71 290 2.0 11.0 0.00 0.00 0.00 58 1009.3
20260509202119 71 200 6.0 11.0 0.00 0.00 0.00 58 1009.2
20260509201629 71 136 1.0 4.0 0.00 0.00 0.00 58 1009.2
20260509201117 71 170 1.0 6.0 0.00 0.00 0.00 58 1009.2
20260509200625 71 226 2.0 6.0 0.00 0.00 0.00 57 1009.3
20260509200114 71 192 1.0 3.0 0.00 0.00 0.00 60 1009.4
20260509195623 70 170 0.0 11.0 0.00 0.00 0.00 62 1009.4
20260509195150 70 28 2.0 11.0 0.00 0.00 0.00 57 1009.5
20260509194618 70 224 1.0 6.0 0.00 0.00 0.00 57 1009.6
20260509194126 70 322 3.0 8.0 0.00 0.00 0.00 58 1009.8
20260509193635 69 250 3.0 8.0 0.00 0.00 0.00 61 1009.9
20260509193122 69 95 1.0 6.0 0.00 0.00 0.00 58 1010.0
20260509192632 69 266 3.0 6.0 0.00 0.00 0.00 60 1009.9
20260509192120 69 183 2.0 5.0 0.00 0.00 0.00 59 1009.9
20260509191627 69 199 0.0 4.0 0.00 0.00 0.00 58 1010.0
20260509191115 68 193 1.0 4.0 0.00 0.00 0.00 60 1009.9
20260509190625 69 232 1.0 3.0 0.00 0.00 0.00 59 1010.1
20260509190128 68 145 1.0 2.0 0.00 0.00 0.00 59 1010.2
20260509185617 68 26 1.0 2.0 0.00 0.00 0.00 61 1010.2
20260509185145 68 143 0.0 2.0 0.00 0.00 0.00 59 1010.2
20260509184614 67 68 1.0 2.0 0.00 0.00 0.00 60 1010.2
20260509184143 67 56 0.0 3.0 0.00 0.00 0.00 59 1010.3
20260509183631 68 336 1.0 3.0 0.00 0.00 0.00 58 1010.4
20260509183119 68 165 0.0 4.0 0.00 0.00 0.00 58 1010.4
20260509182628 67 165 0.0 4.0 0.00 0.00 0.00 59 1010.5
20260509182138 67 10 1.0 4.0 0.00 0.00 0.00 61 1010.7
20260509181627 67 344 0.0 2.0 0.00 0.00 0.00 59 1010.8
20260509181114 67 255 0.0 2.0 0.00 0.00 0.00 59 1011.0
20260509180624 67 243 0.0 2.0 0.00 0.00 0.00 60 1011.2
20260509180114 67 287 0.0 3.0 0.00 0.00 0.00 59 1011.3
20260509175621 67 280 2.0 4.0 0.00 0.00 0.00 58 1011.3
20260509175130 67 12 1.0 4.0 0.00 0.00 0.00 59 1011.4
20260509174620 67 312 0.0 4.0 0.00 0.00 0.00 60 1011.3
20260509174127 66 7 1.0 4.0 0.00 0.00 0.00 59 1011.3
20260509173617 67 320 0.0 3.0 0.00 0.00 0.00 59 1011.4
20260509173140 66 319 0.0 3.0 0.00 0.00 0.00 58 1011.3
20260509172629 66 313 1.0 3.0 0.00 0.00 0.00 61 1011.3